Location: Marcé
(47.5801°N, 0.3280°W)
Time: 22:48:10
(UTC+01:00)

Transit 2A - Pass Details

Date: 01 December 2021
Orbit: 591 x 967 km, 66.7° (Epoch: 16 January)

Event Time Altitude Azimuth Distance (km) Brightness Sun altitude
Rises 03:01:44 0° 238° (WSW) 3,334 - -53.2°
Reaches altitude 10° 03:04:12 10° 245° (WSW) 2,462 - -52.8°
Maximum altitude 03:09:39 42° 316° (NW) 1,259 - -52.0°
Drops below altitude 10° 03:15:34 10° 27° (NNE) 2,668 - -51.2°
Exits shadow 03:16:36 - 30° (NNE) 3,025 9.5 -51.0°
Sets 03:18:21 0° 34° (NE) 3,643 10.0 -50.7°
